Location: Casilda
(33.0440°S, 61.1680°W)
Time: 07:56:32
(UTC-03:00)

ISS - Pass Details

Date: 14 October 2021
Orbit: 417 x 423 km, 51.6° (Epoch: 18 October)

Event Time Altitude Azimuth Distance (km) Brightness Sun altitude
Exits shadow 04:39:39 33° 192° (SSW) 740 -2.5 -21.7°
Maximum altitude 04:40:46 48° 139° (SE) 566 -2.8 -21.5°
Drops below altitude 10° 04:44:05 10° 63° (ENE) 1,516 -0.5 -20.9°
Sets 04:46:13 0° 57° (ENE) 2,374 0.5 -20.5°
